0 HST 1 20580U 90037B 26169.12115247 .00005032 00000-0 15694-3 0 9999 2 20580 28.4721 74.1921 0001767 152.2420 207.8270 15.30755230788710 0 ISS (ZARYA) 1 25544U 98067A 26169.15704105 .00009674 00000-0 18166-3 0 9998 2 25544 51.6334 295.2921 0004743 200.3344 159.7456 15.49293017571908 0 CXO 1 25867U 99040B 26172.02247085 .00000453 00000-0 00000-0 0 9998 2 25867 56.2474 116.4966 7828330 310.2765 0.2930 0.37807394 17335